This is the latest recevied weather packets stored in our database for station/object K2NV. If no packets are shown the sender has not sent any weather packets the latest 10 day(s).
| Time | Temp. | Humidity | Pressure | Rain* | Wind** | Luminosity | Snow |
|---|---|---|---|---|---|---|---|
| 1778174658 | 11.11° C | 64% | 1010.3 hPa | 0 mm | - | - | - |
| 1778174357 | 11.67° C | 61% | 1010.3 hPa | 0 mm | - | - | - |
| 1778174058 | 11.67° C | 59% | 1010.2 hPa | 0 mm | - | - | - |
| 1778173757 | 11.67° C | 58% | 1010.3 hPa | 0 mm | - | - | - |
| 1778173458 | 12.22° C | 59% | 1010.3 hPa | 0 mm | - | - | - |
| 1778173158 | 12.22° C | 62% | 1010.3 hPa | 0 mm | - | - | - |
| 1778172857 | 12.22° C | 60% | 1010.4 hPa | 0 mm | - | - | - |
| 1778172557 | 12.22° C | 59% | 1010.5 hPa | 0 mm | - | - | - |
| 1778172257 | 12.78° C | 60% | 1010.5 hPa | 0 mm | - | - | - |
| 1778171957 | 12.78° C | 57% | 1010.7 hPa | 0 mm | - | - | - |
| 1778171658 | 12.78° C | 58% | 1010.7 hPa | 0 mm | - | - | - |
| 1778171358 | 12.78° C | 57% | 1010.7 hPa | 0 mm | - | - | - |
| 1778171057 | 12.78° C | 57% | 1010.8 hPa | 0 mm | - | - | - |
| 1778170756 | 12.78° C | 56% | 1010.8 hPa | 0 mm | - | - | - |
| 1778170158 | 13.33° C | 56% | 1010.9 hPa | 0 mm | - | - | - |
| 1778169857 | 13.33° C | 56% | 1011 hPa | 0 mm | - | - | - |
| 1778169557 | 13.33° C | 57% | 1011 hPa | 0 mm | - | - | - |
| 1778169257 | 13.33° C | 58% | 1011.1 hPa | 0 mm | - | - | - |
| 1778168957 | 13.33° C | 57% | 1011 hPa | 0 mm | - | - | - |
| 1778168657 | 13.33° C | 55% | 1011 hPa | 0 mm | - | - | - |
| 1778168357 | 13.33° C | 61% | 1011.1 hPa | 0 mm | - | - | - |
| 1778168058 | 13.33° C | 62% | 1011.1 hPa | 0 mm | - | - | - |
| 1778167758 | 13.33° C | 63% | 1011.2 hPa | 0 mm | - | - | - |
| 1778167458 | 12.78° C | 61% | 1011.3 hPa | 0 mm | - | - | - |
| 1778167158 | 12.22° C | 61% | 1011.2 hPa | 0 mm | - | - | - |
* Rain latest hour (hover to see other rain measurements)
** Current wind speed in m/s (hover to see current wind gust speed)